• In Belgium
  • List of Countries
  • For 7 days
  • Water Temperature
  • Satellite Maps
  • Weather Map
  • Weather Widgets
  • user-avatar
    Login

    Hourly Weather Midoun

    Today, 23 February, Friday

    Time Temperature Precipitation Wind Pressure Humidity
    00:00 +13°C° 0.7 mm 3 mps 747 mmHg 75%
    01:00 +13°C° 0.7 mm 4 mps 747 mmHg 76%
    02:00 +13°C° 0.5 mm 5 mps 747 mmHg 77%
    03:00 +11°C° 0.5 mm 6 mps 747 mmHg 78%
    04:00 +10°C° 0.5 mm 7 mps 747 mmHg 79%
    05:00 +10°C° 0.3 mm 7 mps 748 mmHg 77%
    06:00 +9°C° 0.3 mm 8 mps 748 mmHg 75%
    07:00 +9°C° 0.3 mm 8 mps 749 mmHg 73%
    08:00 +10°C° 0 mm 7 mps 749 mmHg 68%
    09:00 +10°C° 0 mm 7 mps 750 mmHg 62%
    10:00 +11°C° 0 mm 7 mps 751 mmHg 57%
    11:00 +12°C° 0 mm 7 mps 751 mmHg 50%
    12:00 +14°C° 0 mm 7 mps 751 mmHg 43%
    13:00 +15°C° 0 mm 8 mps 751 mmHg 36%
    14:00 +15°C° 0 mm 8 mps 751 mmHg 34%
    15:00 +16°C° 0 mm 8 mps 751 mmHg 32%
    16:00 +16°C° 0 mm 8 mps 751 mmHg 30%
    17:00 +15°C° 0 mm 7 mps 752 mmHg 32%
    18:00 +15°C° 0 mm 6 mps 752 mmHg 34%
    19:00 +14°C° 0 mm 5 mps 752 mmHg 36%
    20:00 +14°C° 0 mm 5 mps 752 mmHg 37%
    21:00 +13°C° 0 mm 4 mps 753 mmHg 37%
    22:00 +13°C° 0 mm 4 mps 753 mmHg 37%
    23:00 +13°C° 0 mm 4 mps 753 mmHg 37%

    Tomorrow, 24 February, Saturday

    Time Temperature Precipitation Wind Pressure Humidity
    00:00 +12°C° 0 mm 4 mps 753 mmHg 37%
    01:00 +12°C° 0 mm 4 mps 754 mmHg 37%
    02:00 +12°C° 0 mm 4 mps 754 mmHg 37%
    03:00 +12°C° 0 mm 4 mps 753 mmHg 38%
    04:00 +12°C° 0 mm 4 mps 753 mmHg 38%
    05:00 +12°C° 0 mm 4 mps 753 mmHg 38%
    06:00 +12°C° 0 mm 4 mps 753 mmHg 38%
    07:00 +12°C° 0 mm 4 mps 753 mmHg 38%
    08:00 +14°C° 0 mm 5 mps 753 mmHg 34%
    09:00 +15°C° 0 mm 6 mps 753 mmHg 31%
    10:00 +17°C° 0 mm 6 mps 754 mmHg 27%
    11:00 +20°C° 0 mm 6 mps 753 mmHg 25%
    12:00 +22°C° 0 mm 7 mps 753 mmHg 22%
    13:00 +23°C° 0 mm 7 mps 752 mmHg 20%
    14:00 +23°C° 0 mm 7 mps 752 mmHg 19%
    15:00 +24°C° 0 mm 7 mps 751 mmHg 18%
    16:00 +24°C° 0 mm 8 mps 750 mmHg 17%
    17:00 +23°C° 0 mm 7 mps 750 mmHg 19%
    18:00 +23°C° 0 mm 6 mps 749 mmHg 20%
    19:00 +22°C° 0 mm 5 mps 749 mmHg 22%
    20:00 +21°C° 0 mm 5 mps 749 mmHg 26%
    21:00 +21°C° 0 mm 6 mps 749 mmHg 29%
    22:00 +20°C° 0 mm 6 mps 749 mmHg 33%
    23:00 +20°C° 0 mm 6 mps 749 mmHg 38%

    Day after tomorrow, 25 February, Sunday

    Time Temperature Precipitation Wind Pressure Humidity
    00:00 +18°C° 0 mm 7 mps 748 mmHg 44%
    01:00 +18°C° 0 mm 7 mps 748 mmHg 49%
    02:00 +18°C° 0 mm 7 mps 748 mmHg 52%
    03:00 +17°C° 0 mm 8 mps 748 mmHg 55%
    04:00 +17°C° 0 mm 8 mps 747 mmHg 59%
    05:00 +16°C° 0 mm 7 mps 748 mmHg 63%
    06:00 +15°C° 0 mm 7 mps 748 mmHg 68%
    07:00 +14°C° 0 mm 6 mps 749 mmHg 73%
    08:00 +15°C° 0 mm 6 mps 750 mmHg 70%
    09:00 +15°C° 0 mm 6 mps 750 mmHg 67%
    10:00 +15°C° 0 mm 6 mps 751 mmHg 64%
    11:00 +16°C° 0 mm 6 mps 751 mmHg 61%
    12:00 +16°C° 0 mm 5 mps 751 mmHg 58%
    13:00 +17°C° 0 mm 5 mps 751 mmHg 55%
    14:00 +17°C° 0 mm 5 mps 751 mmHg 52%
    15:00 +17°C° 0 mm 5 mps 751 mmHg 49%
    16:00 +19°C° 0 mm 5 mps 751 mmHg 46%
    17:00 +17°C° 0 mm 5 mps 752 mmHg 48%
    18:00 +16°C° 0 mm 5 mps 752 mmHg 50%
    19:00 +16°C° 0 mm 5 mps 753 mmHg 52%
    20:00 +15°C° 0.1 mm 5 mps 753 mmHg 54%
    21:00 +14°C° 0.1 mm 6 mps 754 mmHg 57%
    22:00 +14°C° 0.1 mm 6 mps 755 mmHg 60%
    23:00 +13°C° 0.1 mm 6 mps 755 mmHg 60%

    26 February, Monday

    Time Temperature Precipitation Wind Pressure Humidity
    00:00 +13°C° 0.1 mm 5 mps 755 mmHg 60%
    01:00 +12°C° 0.1 mm 4 mps 755 mmHg 60%
    02:00 +12°C° 0 mm 4 mps 755 mmHg 59%
    03:00 +11°C° 0 mm 3 mps 755 mmHg 59%
    04:00 +12°C° 0 mm 2 mps 755 mmHg 58%
    05:00 +12°C° 0 mm 2 mps 755 mmHg 58%
    06:00 +12°C° 0 mm 2 mps 755 mmHg 58%
    07:00 +10°C° 0 mm 2 mps 756 mmHg 58%
    08:00 +12°C° 0 mm 3 mps 756 mmHg 53%
    09:00 +13°C° 0 mm 3 mps 756 mmHg 49%
    10:00 +14°C° 0 mm 4 mps 756 mmHg 44%
    11:00 +15°C° 0 mm 4 mps 756 mmHg 39%
    12:00 +17°C° 0 mm 5 mps 756 mmHg 34%
    13:00 +19°C° 0 mm 5 mps 755 mmHg 29%
    14:00 +19°C° 0 mm 5 mps 755 mmHg 27%
    15:00 +20°C° 0 mm 6 mps 754 mmHg 24%
    16:00 +20°C° 0 mm 6 mps 754 mmHg 22%
    17:00 +19°C° 0 mm 5 mps 753 mmHg 24%
    18:00 +18°C° 0 mm 4 mps 753 mmHg 27%
    19:00 +18°C° 0 mm 3 mps 753 mmHg 29%
    20:00 +17°C° 0 mm 3 mps 753 mmHg 30%
    21:00 +17°C° 0 mm 3 mps 753 mmHg 31%
    22:00 +16°C° 0 mm 3 mps 753 mmHg 31%
    23:00 +16°C° 0 mm 3 mps 752 mmHg 32%

    27 February, Tuesday

    Time Temperature Precipitation Wind Pressure Humidity
    00:00 +15°C° 0 mm 4 mps 752 mmHg 32%
    01:00 +15°C° 0 mm 5 mps 751 mmHg 33%
    02:00 +16°C° 0 mm 6 mps 750 mmHg 34%
    03:00 +16°C° 0 mm 6 mps 749 mmHg 34%
    04:00 +16°C° 0 mm 7 mps 748 mmHg 35%
    05:00 +17°C° 0 mm 8 mps 748 mmHg 34%
    06:00 +17°C° 0 mm 8 mps 748 mmHg 33%
    07:00 +17°C° 0 mm 9 mps 747 mmHg 33%
    08:00 +20°C° 0 mm 8 mps 747 mmHg 32%
    09:00 +21°C° 0 mm 8 mps 747 mmHg 31%
    10:00 +22°C° 0 mm 7 mps 747 mmHg 30%
    11:00 +22°C° 0.1 mm 7 mps 747 mmHg 31%
    12:00 +22°C° 0.1 mm 7 mps 747 mmHg 33%
    13:00 +23°C° 0.1 mm 7 mps 747 mmHg 35%
    14:00 +21°C° 0 mm 7 mps 747 mmHg 42%
    15:00 +20°C° 0 mm 8 mps 747 mmHg 49%
    16:00 +18°C° 0 mm 8 mps 747 mmHg 57%
    17:00 +17°C° 0 mm 8 mps 748 mmHg 63%
    18:00 +15°C° 0 mm 9 mps 749 mmHg 69%
    19:00 +13°C° 0 mm 9 mps 750 mmHg 75%
    20:00 +13°C° 0 mm 8 mps 751 mmHg 74%
    21:00 +14°C° 0 mm 7 mps 752 mmHg 74%
    22:00 +12°C° 0 mm 7 mps 753 mmHg 74%
    23:00 +13°C° 0 mm 6 mps 754 mmHg 74%

    28 February, Wednesday

    Time Temperature Precipitation Wind Pressure Humidity
    00:00 +13°C° 0 mm 5 mps 754 mmHg 74%
    01:00 +13°C° 0 mm 5 mps 755 mmHg 74%
    02:00 +13°C° 0 mm 4 mps 755 mmHg 76%
    03:00 +12°C° 0 mm 3 mps 755 mmHg 77%
    04:00 +13°C° 0 mm 2 mps 756 mmHg 78%
    05:00 +13°C° 0 mm 2 mps 756 mmHg 79%
    06:00 +12°C° 0 mm 1 mps 756 mmHg 80%
    07:00 +12°C° 0 mm 1 mps 757 mmHg 81%
    08:00 +13°C° 0 mm 1 mps 757 mmHg 75%
    09:00 +15°C° 0 mm 2 mps 757 mmHg 69%
    10:00 +16°C° 0 mm 3 mps 758 mmHg 62%
    11:00 +17°C° 0 mm 3 mps 758 mmHg 56%
    12:00 +19°C° 0 mm 4 mps 757 mmHg 50%
    13:00 +20°C° 0 mm 4 mps 757 mmHg 44%
    14:00 +21°C° 0 mm 4 mps 757 mmHg 40%
    15:00 +22°C° 0 mm 4 mps 757 mmHg 36%
    16:00 +23°C° 0 mm 4 mps 756 mmHg 31%
    17:00 +22°C° 0 mm 4 mps 756 mmHg 33%
    18:00 +21°C° 0 mm 4 mps 756 mmHg 35%
    19:00 +20°C° 0 mm 3 mps 756 mmHg 37%
    20:00 +20°C° 0 mm 4 mps 756 mmHg 37%
    21:00 +19°C° 0 mm 4 mps 756 mmHg 38%
    22:00 +19°C° 0 mm 4 mps 756 mmHg 38%
    23:00 +19°C° 0 mm 4 mps 756 mmHg 38%
    Show more